Location: D�pe
(52.6057°N, 8.1808°E)
Time: 14:55:17
(UTC+00:00)

ATLAS 2AS CENTAUR R/B - Pass Details

Date: 29 October 2020
Orbit: 939 x 1273 km, 63.7° (Epoch: 23 November)

Event Time Altitude Azimuth Distance (km) Brightness Sun altitude
Rises 20:03:55 0° 314° (NW) 4,139 6.7 -36.4°
Reaches altitude 10° 20:06:59 10° 306° (NW) 3,127 5.9 -36.8°
Maximum altitude 20:13:34 35° 244° (WSW) 1,732 3.9 -37.7°
Enters shadow 20:13:44 35° 241° (WSW) 1,731 3.9 -37.7°
